Regional Weather Roundup
Issued by NWS Sioux Falls, SD

Home | Current Version | Previous Version | Text Only | Print | Product List | Glossary On
Versions: 1 2 3 4 5 6 7 8 9 10 11 12 13 14 15 16 17 18 19 20 21 22 23 24 25 26 27 28 29 30 31 32 33 34 35 36 37 38 39 40 41 42 43 44 45 46 47 48 49 50
000
ASUS43 KFSD 181910
RWRFSD

WEATHER ROUNDUP FOR SE SOUTH DAKOTA/SW MINNESOTA/NW IOWA
NATIONAL WEATHER SERVICE SIOUX FALLS SD
100 PM CST WED JAN 18 2017

NOTE: "FAIR" INDICATES FEW OR NO CLOUDS BELOW 12,000 FEET WITH NO
SIGNIFICANT WEATHER AND OR OBSTRUCTIONS TO VISIBILITY.


SDZ038>040-050-052>070-182000-
SOUTHEAST SOUTH DAKOTA

CITY           SKY/WX    TMP DP  RH WIND       PRES   REMARKS
BROOKINGS      SUNNY     36  28  73 S6        29.82S
CHAMBERLAIN    SUNNY     43  28  55 CALM      29.78F
HURON          CLOUDY    36  26  67 S7        29.81F
MADISON          N/A     37  36  93 S9          N/A
MITCHELL       SUNNY     43  29  57 CALM      29.82F
SIOUX FALLS    MOSUNNY   40  33  76 S12       29.84F
WINNER         FAIR      49  25  39 SW9       29.77F
YANKTON        SUNNY     46  34  61 S7        29.83F
$$

MNZ071-072-080-081-089-090-097-098-182000-
SOUTHWEST MINNESOTA

CITY           SKY/WX    TMP DP  RH WIND       PRES   REMARKS
JACKSON        SUNNY     36  32  87 S17       29.86F
LUVERNE        SUNNY     36  32  87 S12       29.86F
MARSHALL       SUNNY     41  29  62 S9        29.82F
MONTEVIDEO     SUNNY     41  28  60 SW9       29.82S
PIPESTONE      SUNNY     37  32  81 SW10      29.82F
REDWOOD FALLS  SUNNY     37  30  75 S10       29.83F
TRACY          SUNNY     39  32  76 SW18      29.82F
WINDOM           N/A     37  34  87 S12       29.85F
WORTHINGTON    SUNNY     38  32  79 SW16      29.85F
$$

IAZ001>003-012>014-020>022-031-032-NEZ013-014-SDZ071-182000-
NORTHWEST IOWA

CITY           SKY/WX    TMP DP  RH WIND       PRES   REMARKS
CHEROKEE       SUNNY     44  40  88 S8        29.90F
DENISON        SUNNY     43  39  87 S12       29.92F
ESTHERVILLE    SUNNY     37  35  92 S10       29.88F
LE MARS        SUNNY     45  37  76 S14       29.88F
ORANGE CITY    SUNNY     41  37  87 S10       29.88F
SHELDON        SUNNY     41  39  93 S9        29.87F
SIOUX CITY     SUNNY     48  39  71 S8        29.90F
SPENCER        SUNNY     39  36  89 S9        29.89F
STORM LAKE     MIX PCPN  41  37  87 SW16      29.90F
$$

ABBREVIATIONS USED IN REMARKS
   TC - TEMPERATURE IN CELSIUS
  WCI - WIND CHILL INDEX
   HX - HEAT INDEX
  VSB - VISIBILITY





USA.gov is the U.S. government's official web portal to all federal, state and local government web resources and services.